Lapse_Rate
-1.0 -1.0 -0.6 -1.0 -1.1 -1.0 -0.9 -0.8 -1.0 -1.1 -0.8 -0.7 -0.7 -0.9 -0.8 -0.6 -0.8 -0.2 0.2 0.1 0.7 0.7 0.8 1.7 1.6 1.9 1.4 1.5 1.8 2.4 3.7 3.8 4.9 -0.7 -0.8 -0.8 -0.7 -0.1 -0.1 0.1 0.8 1.5 2.5
-1.9 -1.8 -1.9 -1.9 -1.6 -1.8 -2.1 -2.0 -2.0 -2.2 -2.2 -1.9 -1.9 -2.2 -2.4 -2.2 -2.3 -1.7 -1.1 -1.1 -0.5 -0.2 0.2 1.1 2.0 1.6 1.6 2.1 2.1 2.8 2.9 3.4 3.4 1.9 -0.8 -1.0 -0.5 -0.2 0.0 0.1 0.8 1.5 2.3
-2.0 -2.6 -2.6 -2.1 -2.2 -2.4 -2.4 -2.5 -2.4 -2.5 -2.6 -2.5 -2.6 -2.9 -2.7 -2.9 -2.4 -2.6 -2.2 -1.7 -1.3 -1.0 -0.8 -0.5 0.2 0.4 0.9 1.5 2.2 3.0 2.4 2.1 2.1 1.2 -0.5 -0.6 -0.7 -0.3 -0.2 0.2 0.6 1.3 2.7
-2.7 -2.9 -3.0 -2.7 -2.5 -2.5 -2.5 -2.5 -2.6 -2.4 -2.5 -3.0 -3.5 -3.3 -3.3 -3.0 -2.8 -2.6 -2.1 -2.0 -1.9 -1.7 -1.8 -1.7 -1.5 -0.8 0.2 1.6 2.6 2.9 2.2 2.4 2.0 1.5 0.6 -0.1 0.2 0.0 0.3 0.3 0.2 0.8 1.4
-2.4 -2.6 -3.0 -3.5 -3.5 -3.3 -3.2 -3.2 -2.9 -2.9 -3.5 -3.5 -3.8 -3.6 -3.4 -2.5 -1.7 -2.1 -2.3 -2.3 -2.3 -1.9 -1.8 -1.7 -1.5 -0.4 0.9 2.2 2.6 2.7 2.4 2.2 2.0 1.9 1.3 1.0 0.2 0.2 0.7 0.0 0.7 0.6 0.6
-1.7 -2.5 -3.1 -3.0 -3.0 -2.8 -2.6 -3.0 -3.4 -3.8 -3.9 -3.9 -3.4 -3.0 -2.8 -1.9 0.0 0.4 -1.0 -1.9 -1.9 -1.8 -1.7 -1.6 -1.3 -0.2 0.5 2.9 5.2 4.6 3.7 2.6 2.1 1.5 1.3 1.5 1.1 0.9 0.4 1.4 0.6 1.0 2.2
-1.4 -1.8 -1.9 -2.2 -2.3 -2.5 -2.8 -2.9 -3.2 -3.3 -3.4 -3.8 -3.9 -3.4 -2.9 -2.4 0.4 0.8 0.3 -2.0 -2.1 -2.0 -1.8 -1.5 -0.5 0.3 0.8 2.7 4.1 3.4 3.7 3.8 3.6 2.4 2.1 1.9 1.4 0.8 1.5 0.8 1.0 1.4 1.9
-1.4 -1.7 -1.4 -1.2 -1.7 -2.1 -2.0 -2.4 -3.3 -3.2 -3.1 -3.2 -2.8 -2.7 -3.2 -2.2 0.2 0.9 0.7 -1.7 -1.8 -1.9 -1.5 -0.9 -0.3 0.2 2.5 3.4 3.3 2.9 2.2 2.3 2.5 2.7 2.0 2.4 2.7 2.2 2.8 2.1 1.5 0.6 0.4
-0.6 -0.7 -0.7 -0.7 -1.1 -1.5 -1.8 -2.3 -2.5 -2.8 -3.0 -2.7 -2.2 -1.9 -2.3 -2.4 -0.0 1.3 0.2 -0.9 -1.4 -1.6 -0.7 0.2 0.5 1.7 3.8 3.9 2.4 2.6 2.5 2.3 2.9 3.6 3.3 3.2 3.3 2.5 1.5 1.1 1.6 2.2 1.4
0.1 -0.0 -0.4 -0.4 -0.5 -0.7 -1.6 -1.9 -3.2 -2.3 -2.7 -3.0 -2.2 -1.9 -1.7 -2.2 -0.5 1.2 1.1 0.0 0.3 -0.2 -0.1 0.9 2.7 4.2 4.6 4.6 2.0 2.3 2.5 2.4 2.0 1.8 1.1 0.8 1.5 3.0 2.2 0.7 1.2 1.4 -0.4
1.0 0.4 -0.2 -0.5 -0.5 -0.7 -1.9 -2.4 -2.4 -2.8 -2.7 -2.1 -1.9 -1.7 -2.0 -2.4 -1.4 1.8 2.6 1.1 1.9 1.9 1.4 1.0 2.2 4.1 4.6 5.1 3.7 2.4 2.9 2.7 3.1 1.5 1.0 0.1 -0.2 0.3 0.0 0.5 0.9 -1.2 -1.2
0.8 0.8 0.5 0.1 -0.1 -1.3 -1.9 -1.8 -2.7 -2.4 -2.1 -1.6 -1.0 -1.6 -2.3 -1.8 -0.1 1.8 3.6 5.0 4.4 2.6 2.6 1.5 1.3 3.9 4.3 5.0 4.9 4.4 5.0 4.2 1.9 1.6 1.3 0.7 0.1 -0.8 -0.6 -0.4 -0.2 -0.2 0.3
0.9 0.9 0.6 -0.3 -0.5 -0.9 -1.4 -1.5 -1.9 -1.8 -1.0 -0.5 -1.3 -2.0 -1.8 -1.7 -1.4 1.0 3.1 3.9 4.7 2.5 2.2 2.8 4.3 4.7 4.9 5.1 6.2 5.3 5.4 2.2 2.0 1.8 1.9 -0.2 0.7 0.1 -0.5 -0.8 -0.8 -0.9 -0.6
1.2 0.7 0.1 0.0 -0.5 -1.2 -1.1 -1.2 -0.6 -0.2 0.1 -0.4 -0.4 -0.3 -0.3 -0.8 -0.7 -0.2 0.9 1.8 3.6 3.2 3.5 2.7 3.8 4.7 5.0 3.8 4.0 4.1 2.9 2.4 2.0 1.2 0.1 0.4 0.3 -1.1 -0.6 -0.3 -1.5 -1.6 -1.8
1.5 1.0 0.8 0.9 0.9 0.1 -0.1 -0.1 -0.2 0.4 -0.2 -0.8 -0.3 -0.0 0.0 0.0 1.0 0.8 0.9 1.3 1.9 2.9 3.4 1.3 1.8 2.4 2.4 2.4 2.2 2.5 2.2 2.5 1.7 1.0 1.0 0.9 1.3 1.1 0.9 -1.5 -1.0 -1.3 -0.9
1.7 1.5 1.4 1.3 1.0 0.6 0.3 0.9 1.6 1.6 2.2 2.3 1.7 1.0 0.2 1.8 2.4 2.6 2.6 4.1 5.0 5.3 3.8 2.3 1.3 1.5 1.7 2.3 2.2 2.4 2.3 3.0 1.8 2.1 2.4 2.1 1.6 0.8 1.0 -0.1 -0.9 -2.1 -1.1
0.9 1.0 0.8 1.7 2.1 2.3 1.8 1.7 1.8 2.3 3.0 3.1 3.1 3.3 3.4 3.2 3.2 3.2 3.5 4.6 5.3 5.7 4.7 3.2 1.0 1.4 1.2 1.2 1.3 1.2 1.4 1.7 1.4 1.7 1.0 1.3 1.5 1.9 3.2 1.0 0.1 -0.3 -0.6
0.8 2.1 0.8 0.6 0.8 1.2 1.5 1.8 2.2 1.9 2.3 2.4 3.3 3.5 3.3 3.7 3.8 3.9 4.1 5.0 4.1 5.0 3.6 3.7 2.7 1.2 0.9 0.6 1.1 1.1 0.7 0.6 1.4 1.7 1.1 1.2 1.5 1.8 2.0 0.6 1.0 1.1 0.7
2.2 2.4 2.1 1.1 0.7 1.6 2.1 2.8 2.7 2.7 2.0 1.7 1.8 2.6 3.1 3.5 3.7 4.0 4.9 4.1 4.6 4.6 4.1 3.1 1.9 1.6 1.4 0.8 0.6 0.7 1.3 0.7 1.0 1.7 1.5 1.1 0.9 1.3 1.4 1.8 1.2 2.4 2.0
2.9 2.9 3.2 2.2 2.6 3.1 3.1 3.5 3.2 3.0 3.2 2.7 2.5 2.3 2.0 2.2 1.8 1.9 2.2 2.2 3.3 4.2 3.9 3.8 3.3 2.2 2.0 1.5 0.4 0.7 0.5 1.0 0.8 0.3 0.3 0.7 0.9 1.2 1.5 1.3 1.2 1.1 2.1
2.0 2.6 3.5 2.5 2.8 3.1 3.2 3.5 3.3 3.1 3.0 2.9 2.8 2.6 3.7 2.8 2.3 2.4 2.5 2.3 2.7 3.3 3.5 3.2 3.1 2.5 2.4 1.6 1.4 1.1 0.9 1.3 0.7 0.7 0.4 -0.1 0.0 0.2 1.1 1.3 1.3 1.1 1.7
1.0 0.9 1.0 1.8 2.7 3.2 3.7 3.3 3.3 3.3 3.3 3.3 3.1 2.8 3.8 3.6 3.1 3.0 2.8 2.9 3.0 3.2 3.5 3.5 3.1 2.7 2.4 2.2 2.1 1.9 1.8 1.1 0.7 0.3 0.7 0.5 0.5 0.6 0.9 1.1 1.3 1.1 1.0
1.6 1.5 1.5 1.5 1.7 2.5 2.1 3.3 3.7 3.9 4.0 3.8 3.7 3.7 3.7 3.7 3.6 3.5 3.5 3.3 3.2 3.2 3.3 3.2 3.3 3.0 2.4 2.2 2.2 2.0 1.8 1.5 1.4 1.1 0.9 0.8 0.6 0.6 0.7 0.8 1.0 1.2 0.9
2.0 1.7 1.7 1.6 1.6 2.0 1.9 2.2 2.1 2.8 3.4 3.9 4.4 4.6 4.4 4.1 4.2 4.4 4.2 4.2 4.1 4.2 4.1 3.8 3.7 3.6 3.5 3.1 2.6 2.4 2.2 2.2 2.3 1.7 2.1 1.6 1.2 1.5 1.0 0.9 1.1 1.0 1.2
2.2 2.0 2.1 2.0 2.1 2.1 2.2 2.4 2.2 2.2 2.1 2.6 2.9 2.7 2.3 2.6 3.1 3.4 2.8 5.1 5.6 5.6 5.2 4.9 4.7 4.7 4.6 4.3 4.1 3.7 3.3 2.9 2.8 2.8 2.5 2.5 2.2 1.9 2.2 1.4 1.4 1.5 1.6
2.5 2.3 2.2 2.2 2.1 2.3 2.7 2.8 2.3 2.2 1.9 2.7 2.9 2.3 2.0 2.0 2.1 1.7 1.5 1.6 1.7 3.0 4.6 5.9 5.3 5.2 5.3 5.2 5.0 5.2 4.9 4.6 4.4 4.1 3.9 3.4 3.2 3.0 2.9 2.9 2.8 2.9 2.4
Wind_Speed
6 5 6 6 6 6 6 5 6 6 6 6 6 7 6 5 5 5 5 4 4 3 3 3 3 3 3 3 2 2 2 3 4 1 0 1 3 3 5 7 6 6 7
5 6 7 7 6 7 7 6 6 7 6 6 6 7 7 6 6 5 4 4 3 3 4 4 4 3 5 4 3 3 2 3 2 3 1 1 2 5 5 4 5 5 6
5 7 7 6 7 7 6 6 6 7 7 6 7 7 6 6 5 5 4 4 4 4 4 4 4 4 4 3 3 3 2 2 1 3 2 1 1 2 2 3 3 5 5
6 7 7 7 7 7 6 6 7 6 7 6 7 6 6 5 5 5 5 5 5 5 5 5 5 5 5 4 3 4 2 2 1 2 1 2 2 2 3 2 2 2 1
6 7 7 7 7 7 7 6 6 6 6 6 7 6 6 5 4 5 5 5 5 4 4 4 3 5 6 5 2 3 2 2 2 2 2 2 2 2 5 3 2 2 1
6 7 7 7 7 7 6 6 6 7 6 7 6 6 6 3 6 6 5 4 3 3 4 4 4 4 5 6 3 3 3 2 3 2 2 3 3 3 3 4 3 2 2
7 6 6 6 7 6 6 6 6 6 6 6 5 5 5 3 5 6 6 3 3 3 3 4 4 2 3 3 4 5 5 4 5 3 4 4 4 6 6 4 4 2 3
6 6 6 6 6 6 6 6 5 4 5 5 4 4 3 3 3 2 3 2 3 4 3 3 4 4 4 3 2 3 3 3 4 3 4 4 4 5 7 5 4 5 3
6 6 6 6 6 6 6 6 4 5 4 3 3 4 2 2 2 3 3 1 2 4 3 3 3 4 6 1 1 3 3 3 6 3 1 1 3 9 12 6 4 4 1
5 6 6 6 6 6 6 5 3 3 4 4 4 3 2 3 4 3 2 1 2 2 3 2 4 4 6 3 2 1 3 2 2 3 4 7 8 8 8 3 5 6 3
5 5 5 5 6 6 6 3 4 5 5 4 3 2 3 5 4 5 5 3 3 2 2 3 2 4 6 5 5 3 2 1 2 3 3 3 3 4 4 5 5 3 3
6 5 6 6 4 4 6 4 5 5 5 3 2 2 3 3 5 7 7 7 7 4 3 2 3 5 5 6 4 6 5 4 2 2 2 0 1 2 2 5 6 6 4
5 5 5 5 4 5 6 6 3 4 3 2 2 2 3 3 3 7 9 10 9 4 3 5 6 6 8 6 5 6 4 3 2 2 2 2 1 2 6 4 8 11 12
4 4 4 5 5 4 3 3 3 3 3 3 3 3 3 3 3 3 3 4 7 4 4 3 3 5 6 5 4 1 1 3 4 2 2 2 2 2 1 1 1 1 2
4 3 3 3 4 4 4 4 4 3 4 3 4 3 3 3 3 5 5 3 3 5 3 1 1 1 2 2 2 2 1 2 2 2 2 3 2 2 2 1 1 1 2
3 1 1 2 3 3 3 3 7 8 9 10 8 7 4 10 10 10 9 8 8 9 3 2 3 3 3 3 3 3 2 4 3 3 2 3 3 3 3 2 1 2 2
4 3 2 3 2 2 2 3 3 3 9 11 12 12 13 12 12 11 11 9 8 8 3 3 3 3 3 3 3 3 3 3 4 3 3 3 3 4 6 4 3 2 2
4 5 2 2 2 3 3 4 3 3 3 3 6 7 8 10 10 9 10 10 3 5 2 4 5 4 4 4 4 3 3 3 4 5 4 5 5 5 3 3 5 5 4
4 3 3 3 3 4 3 3 3 3 3 3 2 4 6 7 9 9 8 4 5 5 4 5 4 4 5 4 4 4 5 4 4 4 5 5 6 6 6 6 6 11 9
4 7 6 3 3 3 3 3 3 3 3 4 3 3 1 1 1 2 3 2 3 5 5 5 5 5 5 5 4 5 4 5 5 5 6 6 6 7 7 7 7 6 8
3 3 7 3 3 3 3 3 3 3 3 3 3 3 7 3 3 3 3 4 4 4 5 5 5 5 6 5 5 5 6 6 6 6 6 6 6 7 7 7 7 8 7
3 3 3 3 3 3 3 3 3 2 3 3 2 2 7 3 2 3 3 4 4 5 5 5 5 5 6 6 6 7 7 7 7 6 6 7 7 7 7 7 7 7 7
2 3 3 3 3 5 3 3 3 4 3 3 3 2 2 2 2 2 3 3 3 4 5 5 5 5 7 10 11 9 7 7 7 7 7 7 7 8 8 8 8 8 8
2 2 2 3 3 3 3 3 3 5 4 3 3 3 3 4 4 4 3 3 3 3 6 6 6 6 7 8 10 13 14 14 13 12 13 8 8 9 8 8 8 11 9
2 2 2 2 3 3 3 3 2 2 3 3 3 2 3 4 4 4 3 4 5 5 4 7 7 9 11 12 12 13 14 18 17 15 14 11 10 11 10 8 9 9 11
2 2 2 2 2 3 3 3 3 2 2 2 3 2 2 4 5 4 3 3 2 4 6 8 11 13 13 12 13 15 17 18 18 20 17 10 9 9 9 11 14 10 10
Wind_Direction
119 111 105 95 97 97 95 97 97 95 99 91 86 81 77 69 51 57 58 57 35 356 352 326 313 316 298 308 297 284 274 234 268 54 157 174 137 162 155 145 136 124 106
117 110 106 101 98 93 90 91 94 99 86 94 88 81 73 67 53 55 49 44 37 10 351 342 322 340 312 307 311 301 279 261 189 164 153 141 218 150 160 129 127 124 133
121 116 115 116 112 112 112 110 104 105 97 91 94 95 94 78 73 58 50 33 29 26 19 10 352 346 329 333 323 313 307 293 142 151 153 135 126 148 122 112 113 104 102
124 114 113 120 120 119 122 109 106 104 106 98 87 92 88 88 76 64 53 41 34 31 30 28 14 1 335 327 317 299 282 246 208 132 121 142 140 141 125 141 149 108 117
115 112 117 111 107 105 96 103 106 104 102 106 100 91 93 80 65 64 51 46 41 20 12 7 358 345 342 323 301 302 265 255 209 185 158 135 153 152 188 161 142 133 165
125 121 121 122 115 119 129 120 106 96 94 90 87 87 77 69 54 48 65 46 29 14 340 329 323 329 348 336 333 308 263 247 230 193 183 191 182 166 134 161 119 145 212
124 127 123 128 125 122 119 112 108 107 100 92 84 76 75 60 35 37 44 36 24 357 339 328 320 331 345 357 11 21 21 343 255 235 220 210 183 181 150 148 153 151 170
126 125 128 126 120 124 129 124 117 109 111 120 111 101 61 31 15 9 90 46 4 346 326 319 315 315 311 311 325 329 342 346 329 290 236 256 243 169 171 174 147 109 79
138 141 139 137 143 146 144 142 125 125 123 136 132 107 97 283 308 302 131 80 354 336 323 338 339 323 301 281 6 315 333 351 0 31 323 219 178 164 147 120 136 139 116
163 165 153 155 156 156 145 154 134 129 142 144 123 139 173 250 278 278 190 186 290 322 324 326 334 308 290 254 150 221 286 305 2 22 25 40 61 120 130 77 153 156 128
147 151 153 154 156 165 150 151 137 136 140 143 152 180 230 228 257 268 260 202 236 263 286 304 306 302 305 295 178 181 236 192 115 85 60 39 49 54 62 79 137 136 132
148 159 165 171 164 142 144 142 151 159 158 167 193 255 243 238 249 261 265 258 232 210 234 244 261 275 282 281 262 205 229 174 153 140 132 80 55 67 43 73 98 104 83
141 155 161 139 149 168 162 165 155 163 170 190 219 252 249 257 247 266 267 267 264 211 212 222 249 265 263 260 249 205 228 150 163 178 205 172 194 125 107 73 76 87 88
132 140 146 161 172 164 167 160 172 173 181 189 218 242 249 249 259 249 252 260 272 281 224 239 248 262 250 239 248 274 124 182 185 182 169 132 105 106 126 136 97 86 80
107 132 150 181 186 187 200 189 193 200 182 192 213 206 227 249 243 237 236 241 232 234 211 135 227 237 244 227 233 232 188 200 176 167 153 159 164 161 171 147 110 120 128
61 73 199 198 201 203 207 242 230 222 229 238 231 217 223 241 251 258 260 262 265 242 211 189 224 216 223 219 220 230 212 218 184 180 180 174 176 177 177 165 150 155 159
23 359 345 340 288 245 227 226 248 252 244 241 241 246 255 252 249 247 253 254 247 254 226 197 210 204 208 210 207 199 215 202 174 184 177 187 177 188 205 190 183 157 192
9 360 351 311 280 261 243 241 226 227 243 248 239 248 257 267 272 268 253 240 234 242 204 218 224 199 199 207 205 211 213 193 209 207 195 197 194 191 184 188 197 205 203
354 348 335 313 299 278 262 252 240 232 237 252 248 251 253 284 283 273 277 236 220 220 222 227 210 201 207 205 205 203 206 205 205 205 211 204 200 193 206 209 203 214 213
346 355 355 349 325 304 289 267 254 244 240 244 240 245 248 318 225 233 245 265 240 233 224 230 219 210 214 211 202 206 208 220 213 205 214 211 205 204 212 206 203 206 219
338 334 344 349 346 332 309 288 273 256 248 248 257 246 258 238 242 231 233 227 242 244 237 235 229 221 223 219 215 208 215 223 215 214 208 206 203 208 211 211 209 210 212
345 344 338 335 333 329 332 337 320 295 285 281 284 283 303 291 266 243 242 247 247 247 247 242 233 225 221 222 224 222 225 227 223 215 215 215 211 213 208 210 210 208 208
344 335 336 334 335 342 352 349 1 359 348 329 320 312 300 282 277 268 265 264 255 255 254 249 251 249 233 229 224 223 227 230 226 208 213 213 212 214 209 212 208 207 208
325 323 326 331 332 355 337 336 347 6 356 347 342 352 2 353 336 310 302 288 269 264 258 251 251 254 259 243 234 233 235 239 235 223 216 215 214 217 209 212 210 213 215
310 310 312 321 322 312 313 327 328 334 343 338 326 353 354 347 334 332 322 344 327 306 290 275 263 261 260 258 257 252 246 242 236 231 218 219 220 215 215 212 212 215 215
306 311 312 304 308 316 311 304 293 280 268 276 298 310 324 313 299 284 285 297 311 345 334 337 335 332 308 283 273 271 269 269 265 252 237 223 219 219 216 218 218 215 212